Location: Balaclava NSW 2575, Australia
(34.4510°S, 150.4953°E)
Time: 02:34:18
(UTC+10:00)

A-11 Canister half - Pass Details

Date: 18 June 2021
Orbit: 1513 x 1687 km, 47.2° (Epoch: 28 July)

Event Time Altitude Azimuth Distance (km) Brightness Sun altitude
Rises 20:55:52 0° 242° (WSW) 4,782 12.2 -48.8°
Reaches altitude 10° 20:59:10 10° 235° (SW) 3,822 11.5 -49.4°
Enters shadow 21:03:27 27° 218° (SW) 2,730 10.4 -50.3°
